Wind from 033

Air temperature 13.9° C
Dewpoint 10.5° C

Last reported at 2014-Apr-16 21:36 UTC.
Time now 2014-Apr-16 22:29 UTC

Location: N 35°35' E 139°40'.
View on Google Maps.

See reports from other nearby stations

Tides Stations Pressure Air Temp Water Temp Dewpoint Dewpoint depression Visibility Wind Speed Wind Dir Waves Ship positions

  
sailing weather and tide predictions

JQ1YUX-13 Tokyo Ota-ku JP weather

date/time (UTC)wind fromknots sea level pressurealtimeterstation pressurevisibilityair tempwater tempwave heightnotes
2014-Apr-16 21:36 033 13.9
2014-Apr-16 21:17 026 13.9
2014-Apr-16 21:06 042 13.9
2014-Apr-16 20:47 018 13.9
2014-Apr-16 20:36 018 13.9
2014-Apr-16 20:17 030 13.9
2014-Apr-16 20:06 057 0 gusting 4 13.9
2014-Apr-16 19:47 346 13.9
2014-Apr-16 19:36 030 14.4
2014-Apr-16 19:17 049 1 gusting 5 14.4
2014-Apr-16 19:06 351 14.4
2014-Apr-16 18:47 034 15.0
2014-Apr-16 18:36 034 4 gusting 6 15.0
2014-Apr-16 18:17 040 15.0
2014-Apr-16 18:06 028 15.0
2014-Apr-16 17:47 034 1 gusting 5 15.0
2014-Apr-16 17:36 040 15.6
2014-Apr-16 17:17 040 15.6
2014-Apr-16 17:06 043 15.6
2014-Apr-16 16:47 184 15.0
2014-Apr-16 16:36 184 15.0
2014-Apr-16 16:17 184 15.0
2014-Apr-16 16:06 184 15.0
2014-Apr-16 15:47 184 15.0
2014-Apr-16 15:36 185 15.0
2014-Apr-16 15:17 184 15.6
2014-Apr-16 15:06 184 15.6
2014-Apr-16 14:47 184 15.6
2014-Apr-16 14:36 184 16.1
2014-Apr-16 14:18 185 15.6
2014-Apr-16 13:48 184 15.6
2014-Apr-16 13:18 184 15.6
2014-Apr-16 12:48 184 16.1
2014-Apr-16 12:18 184 16.7
2014-Apr-16 11:48 184 16.7
2014-Apr-16 11:18 184 16.7
2014-Apr-16 10:48 184 16.7
2014-Apr-16 10:18 185 16.7
2014-Apr-16 09:48 188 17.2
2014-Apr-16 09:18 187 17.2
2014-Apr-16 08:48 237 18.3
2014-Apr-16 08:18 196 2 gusting 6 18.9
2014-Apr-16 07:48 155 0 gusting 1 19.4
2014-Apr-16 07:18 178 3 gusting 5 19.4
2014-Apr-16 06:48 175 1 gusting 4 20.6
2014-Apr-16 06:18 190 5 gusting 10 21.1
2014-Apr-16 05:48 113 4 gusting 9 21.7
2014-Apr-16 05:18 157 6 gusting 13 22.2
2014-Apr-16 04:48 171 4 gusting 9 22.8
2014-Apr-16 04:18 182 3 gusting 7 22.8
2014-Apr-16 03:48 162 3 gusting 7 22.8
2014-Apr-16 03:18 209 4 gusting 8 22.2
2014-Apr-16 02:48 216 1 gusting 7 21.7
2014-Apr-16 02:18 205 0 gusting 0 21.7
2014-Apr-16 01:48 182 21.1
2014-Apr-16 01:18 238 20.6
2014-Apr-16 00:48 240 19.4
2014-Apr-16 00:18 219 18.3
2014-Apr-15 23:48 246 17.8
2014-Apr-15 23:18 221 16.7
2014-Apr-15 22:48 221 15.6
2014-Apr-15 22:18 221 14.4
2014-Apr-15 21:48 221 13.3
2014-Apr-15 21:18 221 12.2
2014-Apr-15 20:48 221 11.7
2014-Apr-15 20:18 221 12.2
2014-Apr-15 19:48 221 12.2
2014-Apr-15 19:18 221 12.8
2014-Apr-15 18:48 221 12.8
2014-Apr-15 18:18 221 13.3
2014-Apr-15 17:48 221 13.3
2014-Apr-15 17:18 221 13.3
2014-Apr-15 16:48 221 13.9
2014-Apr-15 16:18 221 13.9
2014-Apr-15 15:48 221 13.9
2014-Apr-15 15:18 221 13.9
2014-Apr-15 14:48 221 15.0
2014-Apr-15 14:18 221 15.0
2014-Apr-15 13:48 221 15.0
2014-Apr-15 13:18 221 15.6
2014-Apr-15 12:48 221 0 15.6
2014-Apr-15 12:18 209 0 gusting 7 15.6
2014-Apr-15 11:48 215 0 gusting 1 16.1
2014-Apr-15 11:18 199 16.1
2014-Apr-15 10:48 202 2 gusting 6 16.7
2014-Apr-15 10:18 249 2 gusting 6 16.7
2014-Apr-15 09:48 194 3 gusting 6 17.2
2014-Apr-15 09:18 237 4 gusting 7 17.8
2014-Apr-15 08:48 241 2 gusting 7 18.3
2014-Apr-15 08:18 210 3 gusting 7 18.9
2014-Apr-15 07:48 187 4 gusting 9 19.4
2014-Apr-15 07:18 221 3 gusting 7 19.4
2014-Apr-15 06:48 169 5 gusting 9 19.4
2014-Apr-15 06:18 140 5 gusting 10 20.6
2014-Apr-15 05:48 167 3 gusting 6 20.0
2014-Apr-15 05:18 192 4 gusting 6 20.6
2014-Apr-15 04:48 200 5 gusting 9 20.0
2014-Apr-15 04:18 199 1 gusting 7 20.0
2014-Apr-15 03:48 176 2 gusting 6 20.0
2014-Apr-15 03:18 206 2 gusting 6 19.4
2014-Apr-15 02:48 210 4 gusting 8 19.4
2014-Apr-15 02:18 222 2 gusting 5 18.9
2014-Apr-15 01:48 219 2 gusting 7 18.3
2014-Apr-15 01:18 230 0 gusting 6 18.3
2014-Apr-15 00:48 219 3 gusting 5 17.2
2014-Apr-15 00:18 214 3 gusting 8 16.7
2014-Apr-14 23:48 215 15.6
2014-Apr-14 23:18 240 13.9
2014-Apr-14 22:48 238 12.2
2014-Apr-14 22:18 240 11.1